Location: Mountain Grove
(34.0887°N, 86.6172°W)
Time: 20:09:24
(UTC+00:00)

USA 234 - Pass Details

Date: 14 July 2020
Orbit: 1101 x 1106 km, 123.0° (Epoch: 02 August)

Event Time Altitude Azimuth Distance (km) Brightness Sun altitude
Rises 01:14:47 0° 156° (SSE) 3,902 5.7 -3.7°
Reaches altitude 10° 01:17:24 10° 163° (SSE) 2,947 5.1 -4.2°
Maximum altitude 01:23:32 43° 233° (SW) 1,494 4.2 -5.3°
Drops below altitude 10° 01:29:41 10° 303° (WNW) 2,958 7.4 -6.3°
Sets 01:32:19 0° 310° (NW) 3,919 8.5 -6.8°
